Time,TemperatureF,DewpointF,PressureIn,WindDirection,WindDirectionDegrees,WindSpeedMPH,WindSpeedGustMPH,Humidity,HourlyPrecipIn,Conditions,Clouds,dailyrainin,SoftwareType,DateUTC
2013-09-02 00:12:00,71.9,69.0,29.74,East,91,0.0,0.0,91,0.00,,,0.00,weatherlink.com 1.10,2013-09-02 04:12:00,
2013-09-02 00:27:00,71.6,69.0,29.74,East,91,0.0,0.0,90,0.00,,,0.00,weatherlink.com 1.10,2013-09-02 04:27:00,
2013-09-02 00:42:00,71.3,69.0,29.73,East,91,0.0,0.0,91,0.00,,,0.00,weatherlink.com 1.10,2013-09-02 04:42:00,
2013-09-02 00:57:00,71.0,68.0,29.74,East,91,0.0,0.0,90,0.00,,,0.00,weatherlink.com 1.10,2013-09-02 04:57:00,
2013-09-02 01:12:00,70.8,68.0,29.74,East,91,0.0,0.0,91,0.00,,,0.00,weatherlink.com 1.10,2013-09-02 05:12:00,
2013-09-02 01:27:00,70.7,68.0,29.74,East,91,0.0,0.0,91,0.00,,,0.00,weatherlink.com 1.10,2013-09-02 05:27:00,
2013-09-02 01:42:00,70.7,68.0,29.73,East,91,0.0,0.0,91,0.00,,,0.00,weatherlink.com 1.10,2013-09-02 05:42:00,
2013-09-02 01:57:00,70.6,68.0,29.74,East,91,0.0,0.0,91,0.00,,,0.00,weatherlink.com 1.10,2013-09-02 05:57:00,
2013-09-02 02:12:00,70.6,68.0,29.74,East,91,0.0,0.0,90,0.00,,,0.00,weatherlink.com 1.10,2013-09-02 06:12:00,
2013-09-02 02:27:00,70.9,68.0,29.74,East,91,0.0,0.0,90,0.00,,,0.00,weatherlink.com 1.10,2013-09-02 06:27:00,
2013-09-02 02:42:00,71.1,68.0,29.73,East,91,0.0,0.0,90,0.00,,,0.00,weatherlink.com 1.10,2013-09-02 06:42:00,
2013-09-02 02:57:00,71.2,68.0,29.73,East,91,0.0,0.0,90,0.00,,,0.00,weatherlink.com 1.10,2013-09-02 06:57:00,
2013-09-02 03:12:00,71.3,68.0,29.73,NW,306,0.0,2.0,90,0.00,,,0.00,weatherlink.com 1.10,2013-09-02 07:12:00,
2013-09-02 03:27:00,71.2,68.0,29.73,NW,306,0.0,0.0,90,0.00,,,0.00,weatherlink.com 1.10,2013-09-02 07:27:00,
2013-09-02 03:42:00,71.1,68.0,29.72,NW,306,0.0,0.0,90,0.00,,,0.00,weatherlink.com 1.10,2013-09-02 07:42:00,
2013-09-02 03:57:00,70.9,68.0,29.71,NW,306,0.0,0.0,90,0.00,,,0.00,weatherlink.com 1.10,2013-09-02 07:57:00,
2013-09-02 04:12:00,70.7,68.0,29.71,West,271,0.0,1.0,90,0.00,,,0.00,weatherlink.com 1.10,2013-09-02 08:12:00,
2013-09-02 04:27:00,70.5,68.0,29.71,West,271,0.0,0.0,91,0.00,,,0.00,weatherlink.com 1.10,2013-09-02 08:27:00,
2013-09-02 04:42:00,70.3,67.0,29.72,West,271,0.0,0.0,90,0.00,,,0.00,weatherlink.com 1.10,2013-09-02 08:42:00,
2013-09-02 04:57:00,70.0,67.0,29.72,West,271,0.0,0.0,91,0.00,,,0.00,weatherlink.com 1.10,2013-09-02 08:57:00,
2013-09-02 05:12:00,69.9,67.0,29.72,West,274,0.0,1.0,90,0.00,,,0.00,weatherlink.com 1.10,2013-09-02 09:12:00,
2013-09-02 05:27:00,69.8,67.0,29.72,West,274,0.0,0.0,90,0.00,,,0.00,weatherlink.com 1.10,2013-09-02 09:27:00,
2013-09-02 05:42:00,69.9,67.0,29.72,West,274,0.0,1.0,90,0.00,,,0.00,weatherlink.com 1.10,2013-09-02 09:42:00,
2013-09-02 05:57:00,69.8,67.0,29.73,West,274,0.0,0.0,90,0.00,,,0.00,weatherlink.com 1.10,2013-09-02 09:57:00,
2013-09-02 06:12:00,69.8,67.0,29.74,West,274,0.0,0.0,90,0.00,,,0.00,weatherlink.com 1.10,2013-09-02 10:12:00,
2013-09-02 06:27:00,69.8,67.0,29.73,West,274,0.0,0.0,90,0.00,,,0.00,weatherlink.com 1.10,2013-09-02 10:27:00,
2013-09-02 06:42:00,69.8,67.0,29.74,West,274,0.0,0.0,90,0.00,,,0.00,weatherlink.com 1.10,2013-09-02 10:42:00,
2013-09-02 06:57:00,69.8,67.0,29.75,West,274,0.0,1.0,90,0.00,,,0.00,weatherlink.com 1.10,2013-09-02 10:57:00,
2013-09-02 07:12:00,69.8,67.0,29.75,West,274,0.0,0.0,90,0.00,,,0.00,weatherlink.com 1.10,2013-09-02 11:12:00,
2013-09-02 07:28:00,70.0,67.0,29.75,West,274,0.0,2.0,89,0.00,,,0.00,weatherlink.com 1.10,2013-09-02 11:28:00,
2013-09-02 07:43:00,70.2,67.0,29.76,West,274,0.0,1.0,89,0.00,,,0.00,weatherlink.com 1.10,2013-09-02 11:43:00,
2013-09-02 07:58:00,70.3,67.0,29.76,NW,320,0.0,2.0,89,0.00,,,0.00,weatherlink.com 1.10,2013-09-02 11:58:00,
2013-09-02 08:13:00,70.5,67.0,29.76,West,262,0.0,2.0,89,0.00,,,0.00,weatherlink.com 1.10,2013-09-02 12:13:00,
2013-09-02 08:28:00,70.9,68.0,29.76,West,280,0.0,2.0,89,0.00,,,0.00,weatherlink.com 1.10,2013-09-02 12:28:00,
2013-09-02 08:43:00,71.4,68.0,29.75,WSW,239,0.0,2.0,89,0.00,,,0.00,weatherlink.com 1.10,2013-09-02 12:43:00,
2013-09-02 08:58:00,71.8,69.0,29.75,SSW,213,1.0,4.0,90,0.00,,,0.00,weatherlink.com 1.10,2013-09-02 12:58:00,
2013-09-02 09:13:00,72.4,70.0,29.75,West,276,0.0,3.0,91,0.00,,,0.00,weatherlink.com 1.10,2013-09-02 13:13:00,
2013-09-02 09:28:00,73.0,70.0,29.76,WSW,241,0.0,4.0,91,0.00,,,0.00,weatherlink.com 1.10,2013-09-02 13:28:00,
2013-09-02 09:43:00,73.6,71.0,29.76,South,181,0.0,3.0,90,0.00,,,0.00,weatherlink.com 1.10,2013-09-02 13:43:00,
2013-09-02 09:58:00,74.2,71.0,29.76,SSE,165,0.0,3.0,89,0.00,,,0.00,weatherlink.com 1.10,2013-09-02 13:58:00,
2013-09-02 10:13:00,74.8,71.0,29.76,WSW,237,2.0,6.0,87,0.00,,,0.00,weatherlink.com 1.10,2013-09-02 14:13:00,
2013-09-02 10:28:00,75.5,71.0,29.76,West,277,0.0,5.0,86,0.00,,,0.00,weatherlink.com 1.10,2013-09-02 14:28:00,
2013-09-02 10:43:00,75.7,71.0,29.76,NW,308,2.0,5.0,85,0.00,,,0.00,weatherlink.com 1.10,2013-09-02 14:43:00,
2013-09-02 10:58:00,75.8,71.0,29.77,WNW,293,0.0,1.0,85,0.00,,,0.00,weatherlink.com 1.10,2013-09-02 14:58:00,
2013-09-02 11:13:00,75.8,71.0,29.77,SW,220,0.0,5.0,85,0.00,,,0.00,weatherlink.com 1.10,2013-09-02 15:13:00,
2013-09-02 11:28:00,75.5,71.0,29.77,West,270,1.0,4.0,86,0.00,,,0.00,weatherlink.com 1.10,2013-09-02 15:28:00,
2013-09-02 11:43:00,76.1,71.0,29.77,NW,326,1.0,8.0,85,0.00,,,0.00,weatherlink.com 1.10,2013-09-02 15:43:00,
2013-09-02 11:58:00,77.0,72.0,29.77,SW,231,0.0,5.0,84,0.00,,,0.00,weatherlink.com 1.10,2013-09-02 15:58:00,
2013-09-02 12:13:00,77.9,71.0,29.77,ENE,61,1.0,5.0,80,0.00,,,0.00,weatherlink.com 1.10,2013-09-02 16:13:00,
2013-09-02 12:28:00,78.2,72.0,29.77,SSW,211,1.0,8.0,82,0.00,,,0.00,weatherlink.com 1.10,2013-09-02 16:28:00,
2013-09-02 12:43:00,78.8,72.0,29.77,SW,222,1.0,7.0,80,0.00,,,0.00,weatherlink.com 1.10,2013-09-02 16:43:00,
2013-09-02 12:58:00,77.9,71.0,29.77,NNW,346,3.0,7.0,80,0.00,,,0.00,weatherlink.com 1.10,2013-09-02 16:58:00,
2013-09-02 13:13:00,77.1,71.0,29.77,North,4,2.0,10.0,81,0.00,,,0.00,weatherlink.com 1.10,2013-09-02 17:13:00,
2013-09-02 13:28:00,75.7,71.0,29.78,NW,326,5.0,11.0,84,0.00,,,0.00,weatherlink.com 1.10,2013-09-02 17:28:00,
2013-09-02 13:43:00,75.6,70.0,29.78,NNW,330,3.0,8.0,83,0.00,,,0.00,weatherlink.com 1.10,2013-09-02 17:43:00,
2013-09-02 13:58:00,74.9,70.0,29.77,NNE,29,2.0,7.0,84,0.00,,,0.00,weatherlink.com 1.10,2013-09-02 17:58:00,
2013-09-02 14:13:00,76.1,70.0,29.77,NW,322,0.0,7.0,80,0.00,,,0.00,weatherlink.com 1.10,2013-09-02 18:13:00,
2013-09-02 14:28:00,75.8,69.0,29.77,WNW,303,2.0,8.0,80,0.00,,,0.00,weatherlink.com 1.10,2013-09-02 18:28:00,
2013-09-02 14:43:00,74.8,69.0,29.77,East,95,1.0,6.0,82,0.00,,,0.00,weatherlink.com 1.10,2013-09-02 18:43:00,
2013-09-02 14:58:00,74.6,68.0,29.78,WSW,237,2.0,12.0,81,0.00,,,0.00,weatherlink.com 1.10,2013-09-02 18:58:00,
2013-09-02 15:13:00,73.8,68.0,29.78,NE,34,0.0,7.0,82,0.00,,,0.00,weatherlink.com 1.10,2013-09-02 19:13:00,
2013-09-02 15:28:00,73.7,68.0,29.77,WNW,294,1.0,5.0,83,0.00,,,0.00,weatherlink.com 1.10,2013-09-02 19:28:00,
2013-09-02 15:43:00,74.1,68.0,29.77,SSW,206,0.0,7.0,82,0.00,,,0.00,weatherlink.com 1.10,2013-09-02 19:43:00,
2013-09-02 15:58:00,75.0,68.0,29.76,NNW,338,2.0,7.0,80,0.00,,,0.00,weatherlink.com 1.10,2013-09-02 19:58:00,
2013-09-02 16:13:00,75.3,68.0,29.76,SW,232,3.0,8.0,78,0.00,,,0.00,weatherlink.com 1.10,2013-09-02 20:13:00,
2013-09-02 16:28:00,75.3,67.0,29.77,NNW,342,5.0,8.0,76,0.00,,,0.00,weatherlink.com 1.10,2013-09-02 20:28:00,
2013-09-02 16:43:00,75.0,67.0,29.76,SW,227,4.0,6.0,76,0.00,,,0.00,weatherlink.com 1.10,2013-09-02 20:43:00,
2013-09-02 16:58:00,75.6,66.0,29.77,South,170,3.0,6.0,73,0.00,,,0.00,weatherlink.com 1.10,2013-09-02 20:58:00,
2013-09-02 17:13:00,75.4,65.0,29.77,WNW,284,1.0,8.0,71,0.00,,,0.00,weatherlink.com 1.10,2013-09-02 21:13:00,
2013-09-02 17:28:00,74.6,65.0,29.77,West,266,2.0,9.0,71,0.00,,,0.00,weatherlink.com 1.10,2013-09-02 21:28:00,
2013-09-02 17:43:00,74.7,65.0,29.77,NNE,25,5.0,9.0,71,0.00,,,0.00,weatherlink.com 1.10,2013-09-02 21:43:00,
2013-09-02 17:58:00,75.1,63.0,29.77,SW,220,4.0,9.0,67,0.00,,,0.00,weatherlink.com 1.10,2013-09-02 21:58:00,
2013-09-02 18:13:00,74.9,62.0,29.78,WNW,292,2.0,7.0,65,0.00,,,0.00,weatherlink.com 1.10,2013-09-02 22:13:00,
2013-09-02 18:28:00,74.3,62.0,29.79,NNE,21,3.0,9.0,66,0.00,,,0.00,weatherlink.com 1.10,2013-09-02 22:28:00,
2013-09-02 18:43:00,73.9,62.0,29.79,SW,221,3.0,5.0,67,0.00,,,0.00,weatherlink.com 1.10,2013-09-02 22:43:00,
2013-09-02 18:58:00,73.5,62.0,29.79,SSW,194,1.0,5.0,68,0.00,,,0.00,weatherlink.com 1.10,2013-09-02 22:58:00,
2013-09-02 19:13:00,73.1,62.0,29.79,NNE,30,0.0,4.0,69,0.00,,,0.00,weatherlink.com 1.10,2013-09-02 23:13:00,
2013-09-02 19:28:00,72.6,63.0,29.79,NW,308,0.0,2.0,71,0.00,,,0.00,weatherlink.com 1.10,2013-09-02 23:28:00,
2013-09-02 19:43:00,72.3,63.0,29.80,North,4,0.0,0.0,73,0.00,,,0.00,weatherlink.com 1.10,2013-09-02 23:43:00,
2013-09-02 19:58:00,71.9,64.0,29.79,North,4,0.0,0.0,75,0.00,,,0.00,weatherlink.com 1.10,2013-09-02 23:58:00,
2013-09-02 20:13:00,71.0,63.0,29.79,North,4,0.0,0.0,77,0.00,,,0.00,weatherlink.com 1.10,2013-09-03 00:13:00,
2013-09-02 20:28:00,70.1,63.0,29.80,North,4,0.0,0.0,79,0.00,,,0.00,weatherlink.com 1.10,2013-09-03 00:28:00,
2013-09-02 20:43:00,69.3,63.0,29.80,North,4,0.0,0.0,81,0.00,,,0.00,weatherlink.com 1.10,2013-09-03 00:43:00,
2013-09-02 20:58:00,68.7,63.0,29.80,North,4,0.0,1.0,83,0.00,,,0.00,weatherlink.com 1.10,2013-09-03 00:58:00,
2013-09-02 21:13:00,68.3,63.0,29.80,North,4,0.0,0.0,84,0.00,,,0.00,weatherlink.com 1.10,2013-09-03 01:13:00,
2013-09-02 21:28:00,68.0,63.0,29.81,North,4,0.0,0.0,85,0.00,,,0.00,weatherlink.com 1.10,2013-09-03 01:28:00,
2013-09-02 21:43:00,67.8,63.0,29.81,SSE,164,0.0,10.0,85,0.00,,,0.00,weatherlink.com 1.10,2013-09-03 01:43:00,
2013-09-02 21:58:00,68.6,63.0,29.82,NE,37,2.0,9.0,81,0.00,,,0.00,weatherlink.com 1.10,2013-09-03 01:58:00,
2013-09-02 22:13:00,69.1,62.0,29.81,NE,52,5.0,7.0,78,0.00,,,0.00,weatherlink.com 1.10,2013-09-03 02:13:00,
2013-09-02 22:28:00,68.9,61.0,29.82,North,4,1.0,5.0,77,0.00,,,0.00,weatherlink.com 1.10,2013-09-03 02:28:00,
2013-09-02 22:43:00,68.7,61.0,29.82,NW,313,0.0,4.0,77,0.00,,,0.00,weatherlink.com 1.10,2013-09-03 02:43:00,
2013-09-02 22:58:00,68.3,61.0,29.82,West,270,1.0,7.0,77,0.00,,,0.00,weatherlink.com 1.10,2013-09-03 02:58:00,
2013-09-02 23:13:00,68.1,61.0,29.83,East,81,2.0,7.0,78,0.00,,,0.00,weatherlink.com 1.10,2013-09-03 03:13:00,
2013-09-02 23:28:00,67.8,61.0,29.83,WNW,284,0.0,3.0,78,0.00,,,0.00,weatherlink.com 1.10,2013-09-03 03:28:00,
2013-09-02 23:43:00,67.6,61.0,29.84,North,4,0.0,2.0,79,0.00,,,0.00,weatherlink.com 1.10,2013-09-03 03:43:00,
2013-09-02 23:58:00,67.4,61.0,29.84,WNW,301,0.0,3.0,79,0.00,,,0.00,weatherlink.com 1.10,2013-09-03 03:58:00,